Mena, AR

1:57 AM CDT on April 24, 2018 (GMT -0500)
Mena

Weather History for KMEZ - December, 2013

Change the Weather History Date:

Monday, December 16, 2013

  Actual Average (KFSM) Record (KFSM)
Temperature  
Mean Temperature 53 °F -  
Max Temperature 64 °F 49 °F 77 °F (1924)
Min Temperature 42 °F 29 °F 5 °F (1989)
Degree Days  
Heating Degree Days 12    
Growing Degree Days 3 (Base 50)    
Moisture  
Dew Point 32 °F    
Average Humidity 48    
Maximum Humidity 66    
Minimum Humidity 26    
Precipitation  
Precipitation 0.00 in - - ()
Sea Level Pressure  
Sea Level Pressure 30.18 in    
Wind  
Wind Speed 7 mph (WSW)    
Max Wind Speed 13 mph    
Max Gust Speed 20 mph    
Visibility 10 miles    
Events      
Averages and records for this station are not official NWS values.
T = Trace of Precipitation, MM = Missing Value Source: NWS Daily Summary

Daily Weather History Graph

Daily Weather History Graph

Search for Another Location

Airport or City:

Astronomy

Dec. 16, 2013 Rise Set
Actual Time 7:17 AM CST 5:08 PM CST
Civil Twilight 6:49 AM CST 5:36 PM CST
Nautical Twilight 6:17 AM CST 6:07 PM CST
Astronomical Twilight 5:46 AM CST 6:38 PM CST
Moon 4:56 PM CST (12/16) 6:28 AM CST (12/16)
Length of Visible Light 10h 47m
Length of Day
9h 51m
Full, 100% of the Moon is Illuminated
Dec 16
Full
Dec 17
Full
Dec 25
Last Quarter
Jan 1
New
Jan 7
First Quarter

Hourly Weather History & Observations

Time (CST) Temp. Windchill Dew Point Humidity Pressure Visibility Wind Dir Wind Speed Gust Speed Precip Events Conditions
12:15 AM 46.4 °F 43.5 °F 32.0 °F 57% 30.22 in 10.0 mi WSW 5.8 mph - N/A   Clear
12:35 AM 44.6 °F 42.2 °F 32.0 °F 61% 30.21 in 10.0 mi SW 4.6 mph - N/A   Clear
12:55 AM 44.6 °F 40.7 °F 32.0 °F 61% 30.21 in 10.0 mi WSW 6.9 mph - N/A   Clear
1:15 AM 44.6 °F 42.2 °F 32.0 °F 61% 30.21 in 10.0 mi WSW 4.6 mph - N/A   Clear
1:35 AM 44.6 °F - 32.0 °F 61% 30.21 in 10.0 mi Calm Calm - N/A   Clear
1:55 AM 42.8 °F - 32.0 °F 66% 30.21 in 10.0 mi Calm Calm - N/A   Clear
2:15 AM 44.6 °F 40.7 °F 32.0 °F 61% 30.21 in 10.0 mi WSW 6.9 mph - N/A   Clear
2:35 AM 42.8 °F - 32.0 °F 66% 30.21 in 10.0 mi Calm Calm - N/A   Clear
2:55 AM 42.8 °F 39.3 °F 32.0 °F 66% 30.21 in 10.0 mi WSW 5.8 mph - N/A   Clear
3:15 AM 44.6 °F 40.7 °F 32.0 °F 61% 30.20 in 10.0 mi WSW 6.9 mph - N/A   Clear
3:35 AM 44.6 °F 40.2 °F 32.0 °F 61% 30.20 in 10.0 mi West 8.1 mph - N/A   Clear
3:55 AM 44.6 °F 39.7 °F 32.0 °F 61% 30.20 in 10.0 mi WSW 9.2 mph - N/A   Clear
4:15 AM 44.6 °F 42.2 °F 32.0 °F 61% 30.19 in 10.0 mi WSW 4.6 mph - N/A   Clear
4:35 AM 44.6 °F 40.2 °F 32.0 °F 61% 30.20 in 10.0 mi West 8.1 mph - N/A   Clear
4:55 AM 44.6 °F 40.2 °F 32.0 °F 61% 30.20 in 10.0 mi WSW 8.1 mph - N/A   Clear
5:15 AM 44.6 °F 40.2 °F 32.0 °F 61% 30.19 in 10.0 mi WSW 8.1 mph - N/A   Clear
5:35 AM 46.4 °F 41.9 °F 32.0 °F 57% 30.19 in 10.0 mi West 9.2 mph 18.4 mph N/A   Clear
5:55 AM 44.6 °F 39.7 °F 32.0 °F 61% 30.18 in 10.0 mi WSW 9.2 mph - N/A   Clear
6:15 AM 44.6 °F 40.2 °F 32.0 °F 61% 30.19 in 10.0 mi WSW 8.1 mph - N/A   Clear
6:35 AM 44.6 °F 40.7 °F 32.0 °F 61% 30.20 in 10.0 mi WSW 6.9 mph - N/A   Clear
6:55 AM 44.6 °F 42.2 °F 32.0 °F 61% 30.20 in 10.0 mi SW 4.6 mph - N/A   Clear
7:15 AM 44.6 °F 42.2 °F 32.0 °F 61% 30.21 in 10.0 mi SW 4.6 mph - N/A   Clear
7:35 AM 44.6 °F 40.7 °F 32.0 °F 61% 30.21 in 10.0 mi SW 6.9 mph - N/A   Clear
7:55 AM 44.6 °F 40.7 °F 32.0 °F 61% 30.21 in 10.0 mi WSW 6.9 mph - N/A   Clear
8:15 AM 44.6 °F 40.2 °F 32.0 °F 61% 30.22 in 10.0 mi SW 8.1 mph - N/A   Clear
8:35 AM 46.4 °F 42.9 °F 32.0 °F 57% 30.22 in 10.0 mi WSW 6.9 mph - N/A   Clear
8:55 AM 46.4 °F 41.9 °F 32.0 °F 57% 30.22 in - WSW 9.2 mph - N/A   Clear
9:15 AM 48.2 °F - 32.0 °F 54% 30.23 in - WSW 10.4 mph - N/A   Clear
9:35 AM 50.0 °F - 32.0 °F 50% 30.23 in - WSW 11.5 mph 17.3 mph N/A   Clear
9:55 AM 50.0 °F - 32.0 °F 50% 30.23 in - WSW 12.7 mph 17.3 mph N/A   Clear
10:15 AM 51.8 °F - 32.0 °F 47% 30.23 in - West 10.4 mph - N/A   Clear
10:35 AM 51.8 °F - 32.0 °F 47% 30.22 in - West 11.5 mph - N/A   Clear
10:55 AM 53.6 °F - 32.0 °F 44% 30.21 in - WSW 10.4 mph 17.3 mph N/A   Clear
11:15 AM 55.4 °F - 32.0 °F 41% 30.20 in - WSW 11.5 mph 17.3 mph N/A   Clear
11:35 AM 55.4 °F - 32.0 °F 41% 30.19 in - WSW 11.5 mph - N/A   Clear
11:55 AM 57.2 °F - 32.0 °F 38% 30.18 in - WSW 11.5 mph 17.3 mph N/A   Clear
12:15 PM 59.0 °F - 32.0 °F 36% 30.17 in - WSW 10.4 mph - N/A   Clear
12:35 PM 59.0 °F - 32.0 °F 36% 30.16 in - WSW 11.5 mph - N/A   Clear
12:55 PM 60.8 °F - 32.0 °F 34% 30.15 in - WSW 8.1 mph - N/A   Clear
1:15 PM 62.6 °F - 32.0 °F 32% 30.15 in - West 10.4 mph - N/A   Clear
1:35 PM 62.6 °F - 32.0 °F 32% 30.13 in - West 9.2 mph 16.1 mph N/A   Clear
1:55 PM 64.4 °F - 30.2 °F 28% 30.13 in - West 12.7 mph 19.6 mph N/A   Clear
2:15 PM 64.4 °F - 30.2 °F 28% 30.13 in - WSW 9.2 mph - N/A   Clear
2:35 PM 64.4 °F - 30.2 °F 28% 30.13 in - WSW 8.1 mph - N/A   Clear
2:55 PM 64.4 °F - 28.4 °F 26% 30.13 in 10.0 mi WSW 11.5 mph 19.6 mph N/A   Clear
3:15 PM 64.4 °F - 28.4 °F 26% 30.13 in 10.0 mi WSW 10.4 mph 18.4 mph N/A   Clear
3:35 PM 64.4 °F - 30.2 °F 28% 30.14 in 10.0 mi WSW 10.4 mph - N/A   Clear
3:55 PM 64.4 °F - 30.2 °F 28% 30.14 in 10.0 mi SW 9.2 mph - N/A   Clear
4:15 PM 62.6 °F - 30.2 °F 30% 30.15 in 10.0 mi WSW 4.6 mph - N/A   Clear
4:35 PM 62.6 °F - 30.2 °F 30% 30.15 in 10.0 mi WSW 4.6 mph - N/A   Clear
4:55 PM 60.8 °F - 30.2 °F 31% 30.16 in 10.0 mi SW 4.6 mph - N/A   Clear
5:15 PM 59.0 °F - 32.0 °F 36% 30.16 in 10.0 mi SW 4.6 mph - N/A   Clear
5:35 PM 55.4 °F - 32.0 °F 41% 30.16 in 10.0 mi SW 4.6 mph - N/A   Clear
5:55 PM 55.4 °F - 33.8 °F 44% 30.16 in 10.0 mi West 4.6 mph - N/A   Clear
6:15 PM 53.6 °F - 33.8 °F 47% 30.17 in 10.0 mi West 6.9 mph - N/A   Clear
6:35 PM 53.6 °F - 33.8 °F 47% 30.17 in 10.0 mi WSW 5.8 mph - N/A   Clear
6:55 PM 55.4 °F - 33.8 °F 44% 30.17 in 10.0 mi WSW 4.6 mph - N/A   Clear
7:15 PM 53.6 °F - 33.8 °F 47% 30.16 in 10.0 mi WSW 5.8 mph - N/A   Clear
7:35 PM 55.4 °F - 33.8 °F 44% 30.16 in 10.0 mi WSW 5.8 mph - N/A   Clear
7:55 PM 55.4 °F - 32.0 °F 41% 30.16 in 10.0 mi WSW 6.9 mph - N/A   Clear
8:15 PM 55.4 °F - 32.0 °F 41% 30.16 in 10.0 mi WSW 4.6 mph - N/A   Clear
8:35 PM 55.4 °F - 33.8 °F 44% 30.17 in 10.0 mi West 5.8 mph - N/A   Clear
8:55 PM 55.4 °F - 32.0 °F 41% 30.17 in 10.0 mi WSW 8.1 mph - N/A   Clear
9:15 PM 55.4 °F - 32.0 °F 41% 30.18 in 10.0 mi WSW 8.1 mph - N/A   Clear
9:35 PM 53.6 °F - 32.0 °F 44% 30.19 in 10.0 mi West 5.8 mph - N/A   Clear
9:55 PM 48.2 °F - 33.8 °F 58% 30.20 in 10.0 mi West 4.6 mph - N/A   Clear
10:15 PM 50.0 °F - 33.8 °F 54% 30.19 in 10.0 mi WSW 5.8 mph - N/A   Clear
10:35 PM 51.8 °F - 32.0 °F 47% 30.18 in 10.0 mi SW 5.8 mph - N/A   Clear
10:55 PM 51.8 °F - 32.0 °F 47% 30.19 in 10.0 mi West 3.5 mph - N/A   Clear
11:15 PM 50.0 °F - 33.8 °F 54% 30.20 in 10.0 mi Calm Calm - N/A   Clear